Showing default

OPS 0082 (TRANSIT 13), 2176

Orbit data source: Space-Track

OPS 0082 (TRANSIT 13), 2176 is a payload satellite owned by USN NAVAIR (US) in LEO that was launched on Thu, 19 May 1966 UTC via an SCOUT A launch vehicle from the Air Force Western Test Range (AFWTR). Payload-class satellites include a variety of spacecraft equipped with specific instruments for various scientific and technological missions. These include communications satellites like Starlink; space stations such as the ISS; scientific satellites like the Hubble; Earth observation satellites from companies like Planet Labs, Umbra, and HawkEye 360; GPS; miniature CubeSats for education and research; and military/defense satellites.

Loading next visibility...
Identifier
2176, 1966-041A
Orbit
LEO
Country
Flag of USUS
Related business
Manufacturer
APL
Mission
Spacecraft
Bus & Motor
TRANSIT 5, Unknown motor
Mass
51 kg wet, 51 kg dry
Launch date (UTC)
1966-05-19 (60 years ago)
Launch vehicle
SCOUT A
Launch site
Air Force Western Test Range (AFWTR)
Object type
Payload
Rocket body
Debris
Shape & HBR
Unknown
Radar Cross Section
Large (>1 m²)

Expand to show TLE details & history
Last TLE update: 12 hours ago

TLE from 12 hours ago
0 OPS 0082 (TRANSIT 13)
1 02176U 66041A   26105.89972249  .00000149  00000-0  86660-4 0  9991
2 02176  90.2264  81.6348 0061133 307.9230  51.6434 14.04307044 58697
Epoch: 2026-04-15T21:35Z
TLE epoch observation values (Epoch: 2026-04-15T21:35:36.023Z)
Latitude
-0.00003°
Longitude
-86.32029°
Altitude
854.583 km
Speed
7.439 km/s
True Right ascension
05h 26m 32s
True Declination
0° 00' 00"
Sunlit
Object was in daylight at epoch
Visualization orbit readout
Latitude
Unknown
Longitude
Unknown
Altitude
Unknown
Speed
Unknown
Apparent Right ascension
Unknown
Apparent Declination
Unknown
Sunlit
N/A
Visualization observer readout
Local Sidereal Time
16:24:33
Azimuth
Unknown
Elevation
Unknown
Doppler factor
Unknown
Orbital elements
Apogee altitude
920.236 km
Perigee altitude
831.544 km
Semi-major axis
7,254.027 km
Eccentricity
0.00611
Inclination
90.2264°
RAAN
81.6348°
Arg. of periapsis
307.923°
True anomaly
52.19534°
Mean anomaly
51.6434°
Eccentric anomaly
51.91911°
Mean motion
3.51297 °/min
Orbital period
102.48 mins
BSTAR
0.00008666
Loading maneuver chart data...
Computing Atmospheric mass density...
Loading historical data...
Loading historical data...
Loading historical data...
Loading historical data...
Loading historical data...
Loading historical data...
Loading historical data...

Documentation

Showing up to 5 results
|